This is the latest recevied weather packets stored in our database for station/object KM5R. If no packets are shown the sender has not sent any weather packets the latest 10 day(s).
| Time | Temp. | Humidity | Pressure | Rain* | Wind** | Luminosity | Snow |
|---|---|---|---|---|---|---|---|
| 1777821109 | 21.11° C | 51% | 1024.5 hPa | 0 mm | - | 439 W/m² | - |
| 1777820807 | 20.56° C | 51% | 1024.6 hPa | 0 mm | - | 429 W/m² | - |
| 1777820503 | 20.56° C | 52% | 1024.5 hPa | 0 mm | - | 415 W/m² | - |
| 1777820200 | 20° C | 53% | 1024.4 hPa | 0 mm | - | 399 W/m² | - |
| 1777819897 | 20° C | 52% | 1024.5 hPa | 0 mm | - | 387 W/m² | - |
| 1777819594 | 20° C | 53% | 1024.6 hPa | 0 mm | - | 372 W/m² | - |
| 1777819292 | 20° C | 54% | 1024.3 hPa | 0 mm | - | 355 W/m² | - |
| 1777818988 | 20° C | 55% | 1024.5 hPa | 0 mm | - | 344 W/m² | - |
| 1777818686 | 19.44° C | 56% | 1024.3 hPa | 0 mm | - | 329 W/m² | - |
| 1777818382 | 19.44° C | 57% | 1024.4 hPa | 0 mm | - | 317 W/m² | - |
| 1777818079 | 18.89° C | 57% | 1024.4 hPa | 0 mm | - | 300 W/m² | - |
| 1777817775 | 18.89° C | 58% | 1024.4 hPa | 0 mm | - | 284 W/m² | - |
| 1777817473 | 18.33° C | 58% | 1024.3 hPa | 0 mm | - | 263 W/m² | - |
| 1777817169 | 18.33° C | 58% | 1024.3 hPa | 0 mm | - | 260 W/m² | - |
| 1777816867 | 18.33° C | 57% | 1024.3 hPa | 0 mm | - | 240 W/m² | - |
| 1777816564 | 18.33° C | 57% | 1024.2 hPa | 0 mm | - | 233 W/m² | - |
| 1777816260 | 17.78° C | 58% | 1024 hPa | 0 mm | - | 219 W/m² | - |
| 1777815958 | 17.78° C | 57% | 1024 hPa | 0 mm | - | 205 W/m² | - |
| 1777815655 | 17.78° C | 58% | 1024.3 hPa | 0 mm | - | 194 W/m² | - |
| 1777815352 | 17.78° C | 58% | 1024.1 hPa | 0 mm | - | 180 W/m² | - |
| 1777815049 | 17.22° C | 59% | 1024.2 hPa | 0 mm | - | 169 W/m² | - |
| 1777814745 | 17.22° C | 60% | 1024.2 hPa | 0 mm | - | 156 W/m² | - |
| 1777814443 | 16.67° C | 61% | 1024.1 hPa | 0 mm | - | 142 W/m² | - |
| 1777814140 | 16.67° C | 61% | 1024 hPa | 0 mm | - | 133 W/m² | - |
| 1777813837 | 16.67° C | 62% | 1024.2 hPa | 0 mm | - | 119 W/m² | - |
* Rain latest hour (hover to see other rain measurements)
** Current wind speed in m/s (hover to see current wind gust speed)